sat.trackr.live / text

‹ back to catalog

KUIPER-00276

NORAD 67794 · 2026-030AG

PAYLOAD ACTIVE UNKNOWN

§ Identity

Operator
Country
US
Launch date
2026-02-12
Launch site
FRGUI
Launch vehicle
Mass (kg)
RCS (m²)

External: N2YO · Heavens-Above · Gunter

§ Orbital elements

Epoch: 2026-05-25T04:15:53.525376Z

Period
94.50 min
Inclination
51.8840°
Eccentricity
0.0018063
Mean motion
15.23874147 rev/d
Perigee alt
481.8 km
Apogee alt
506.6 km
Semi-major
6,872.3 km
B*
4.2404e-4
RAAN
215.6148°
Arg perigee
315.2730°
Mean anomaly
44.6793°
Rev number
1,677

§ Raw data

KUIPER-002761 67794U 26030AG  26145.17770284  .00010089  00000+0  42404-3 0  99922 67794  51.8840 215.6148 0018063 315.2730  44.6793 15.23874147 16773

JSON: /api/v1/satellites/67794 · /tle

For live sub-satellite position, see the globe view (requires WebGL).

§ Visibility from observer

Set your observer location to see the next 7 days of passes ≥ 10°. The values pass through the URL so the page stays shareable.

No JS? Fill the form by hand. The geolocation button needs JavaScript.